Location: Sewell
(39.7660°N, 75.1450°W)
Time: 20:07:29
(UTC-05:00)

ISS - Visible Passes

Search period start: 17 November 2017 00:00
Search period end: 27 November 2017 00:00
Orbit: 401 x 407 km, 51.6° (Epoch: 18 November)

Date Brightness Start Highest point End Pass type
(mag) Time Alt. Az. Time Alt. Az. Time Alt. Az.
17 Nov -3.7 04:59:13 70° ENE 04:59:13 70° ENE 05:02:17 10° ESE visible
18 Nov -0.4 04:09:27 12° E 04:09:27 12° E 04:09:48 10° ESE visible
18 Nov -2.3 05:42:08 19° WSW 05:43:01 21° SW 05:45:35 10° S visible
19 Nov -2.0 04:52:26 24° SSE 04:52:26 24° SSE 04:53:58 10° SSE visible
24 Nov -1.1 18:42:04 10° SSW 18:42:32 13° S 18:42:32 13° S visible
25 Nov -1.7 17:50:54 10° SSE 17:52:43 14° SE 17:52:45 14° SE visible
26 Nov -2.8 18:33:12 10° SW 18:35:33 43° SSW 18:35:33 43° SSW visible
